Back to catalog

TIANFU DONGPO 09

AliveCommunicationsSSO
NORAD 54685·PAYLOAD·🇨🇳 China
This satellite name has not been confirmed by official sources yet.

Launched Dec 9, 2022 from Yellow Sea Launch Area

Loading…

Next Passes (next 24 hours)

TLE

FreshSource: Space-Track

Epoch: Sep 14, 2026, 15:40 UTC

1 54685U 22167D   26257.65323020  .00009102  00000-0  24534-3 0  9992
2 54685  97.6966  72.8250 0002880 137.8066 222.3400 15.38060126209192

Track TIANFU DONGPO 09 in real time with AllMySat

Download on the App Store